SLJO

Details ICAO SLJO
Name San Joaquin
Region Bolivia
Timezone America/La_Paz (UTC-4.0)
Plans Departing 0
Arriving 0
Stats Elevation 456 ft / 139 m (AMSL)
Location -13.039444° -64.665276°
Runways 1
Magnetic Variation 11.737° W
Sunrise 2018-05-21 10:32:36 UTC / 2018-05-21 06:32:36 Local
Sunset 2018-05-21 22:00:47 UTC / 2018-05-21 18:00:47 Local
Advertisement - Login to hide

Runways

ID Width Length Bearing (true) Bearing (mag) Surface Threshold Offset Overrun Length
16 94 ft / 29 m 6,568 ft / 2,002 m 155.00° 166.74° Concrete 0 ft / 0 m 0 ft / 0 m
34 94 ft / 29 m 6,568 ft / 2,002 m 335.00° 346.74° Concrete 0 ft / 0 m 0 ft / 0 m

Map

Weather


0- 5 10 15 20 25 30 35+ Temperature / ° C

Clouds and Precipitation
Forecast for 2018-05-21 12:00 UTC. Updated 4 hours ago

Ground ~20,000 ft ~40,000 ft Winds

METAR

SLJO 211500Z 14006KT 9999 NSC 25/18 Q1014

TAF

Not found
Warning: Do not use this data for real-world aviation or navigation. No guarantee of current accuracy is given.